timestamp,wind_dir_avg,wind_spd_avg,wind_spd_max_dir,wind_spd_gust,battery_voltage,lat,long
2021-03-10 00:04:01+00:00,259.0,7.25,262.0,8.4,12.49,47.59359,-54.27349
2021-03-10 00:14:01+00:00,262.0,7.1,264.0,8.92,12.49,47.59359,-54.27349
2021-03-10 00:24:01+00:00,260.0,7.2,265.0,8.27,12.49,47.59359,-54.27349
2021-03-10 00:34:01+00:00,267.0,7.24,267.0,8.34,12.49,47.59359,-54.27349
2021-03-10 00:44:01+00:00,265.0,6.73,266.0,8.35,12.49,47.59359,-54.27349
2021-03-10 00:54:01+00:00,275.0,6.5,281.0,7.36,12.49,47.59359,-54.27349
2021-03-10 01:04:01+00:00,274.0,6.98,275.0,8.73,12.49,47.59359,-54.27349
2021-03-10 01:14:01+00:00,275.0,7.11,276.0,8.14,12.41,47.59359,-54.27349
2021-03-10 01:24:01+00:00,285.0,8.51,284.0,9.43,12.41,47.59359,-54.27349
2021-03-10 01:34:01+00:00,281.0,7.3,282.0,8.19,12.41,47.59359,-54.27349
2021-03-10 01:44:01+00:00,283.0,7.84,281.0,9.4,12.41,47.59359,-54.27349
2021-03-10 01:54:01+00:00,280.0,8.02,283.0,9.34,12.41,47.59359,-54.27349
2021-03-10 02:04:01+00:00,288.0,8.8,294.0,10.01,12.41,47.59359,-54.27349
2021-03-10 02:14:01+00:00,284.0,8.68,289.0,9.81,12.41,47.59359,-54.27349
2021-03-10 02:24:01+00:00,289.0,8.51,290.0,10.03,12.41,47.59359,-54.27349
2021-03-10 02:34:01+00:00,290.0,9.06,290.0,10.01,12.41,47.59359,-54.27349
2021-03-10 02:44:01+00:00,291.0,7.97,296.0,9.15,12.41,47.59359,-54.27349
2021-03-10 02:54:01+00:00,296.0,8.66,292.0,9.73,12.41,47.59359,-54.27349
2021-03-10 03:04:01+00:00,299.0,6.89,296.0,8.16,12.41,47.59359,-54.27349
2021-03-10 03:14:01+00:00,294.0,6.66,295.0,7.89,12.41,47.59359,-54.27349
2021-03-10 03:24:01+00:00,301.0,6.65,299.0,7.47,12.41,47.59359,-54.27349
2021-03-10 03:34:01+00:00,296.0,6.44,293.0,7.05,12.41,47.59359,-54.27349
2021-03-10 03:44:01+00:00,293.0,7.32,293.0,8.05,12.41,47.59359,-54.27349
2021-03-10 03:54:01+00:00,288.0,6.0,289.0,6.54,12.41,47.59359,-54.27349
2021-03-10 04:04:01+00:00,288.0,6.72,287.0,7.92,12.41,47.59359,-54.27349
2021-03-10 04:14:01+00:00,272.0,5.94,276.0,6.81,12.41,47.59359,-54.27349
2021-03-10 04:24:01+00:00,288.0,6.02,291.0,7.77,12.41,47.59359,-54.27349
2021-03-10 04:34:01+00:00,289.0,6.68,288.0,7.67,12.41,47.59359,-54.27349
2021-03-10 04:44:01+00:00,287.0,6.65,283.0,7.46,12.41,47.59359,-54.27349
2021-03-10 04:54:01+00:00,285.0,7.05,287.0,7.87,12.41,47.59359,-54.27349
2021-03-10 05:04:01+00:00,288.0,8.23,292.0,9.18,12.41,47.59359,-54.27349
2021-03-10 05:14:01+00:00,275.0,7.34,274.0,8.35,12.33,47.59359,-54.27349
2021-03-10 05:24:01+00:00,280.0,6.45,280.0,7.07,12.33,47.59359,-54.27349
2021-03-10 05:34:01+00:00,275.0,5.89,271.0,6.68,12.33,47.59359,-54.27349
2021-03-10 05:44:01+00:00,284.0,6.19,289.0,6.91,12.33,47.59359,-54.27349
2021-03-10 05:54:01+00:00,296.0,5.81,297.0,6.83,12.33,47.59359,-54.27349
2021-03-10 06:04:01+00:00,291.0,6.69,294.0,7.65,12.33,47.59359,-54.27349
2021-03-10 06:14:01+00:00,300.0,5.16,303.0,6.15,12.33,47.59359,-54.27349
2021-03-10 06:24:01+00:00,304.0,4.74,302.0,5.41,12.33,47.59359,-54.27349
2021-03-10 06:34:01+00:00,304.0,4.48,305.0,5.16,12.33,47.59359,-54.27349
2021-03-10 06:44:01+00:00,296.0,3.85,298.0,4.96,12.33,47.59359,-54.27349
2021-03-10 06:54:01+00:00,307.0,3.99,308.0,4.5,12.33,47.59359,-54.27349
2021-03-10 07:04:01+00:00,312.0,3.62,310.0,4.21,12.33,47.59359,-54.27349
2021-03-10 07:14:01+00:00,314.0,3.23,311.0,3.99,12.25,47.59359,-54.27349
2021-03-10 07:24:01+00:00,319.0,3.59,314.0,4.03,12.25,47.59359,-54.27349
2021-03-10 07:34:01+00:00,311.0,3.57,310.0,4.35,12.25,47.59359,-54.27349
2021-03-10 07:44:01+00:00,301.0,3.07,306.0,3.76,12.25,47.59359,-54.27349
2021-03-10 07:54:01+00:00,301.0,2.52,313.0,3.19,12.25,47.59359,-54.27349
2021-03-10 08:04:01+00:00,283.0,4.52,286.0,5.14,12.25,47.59359,-54.27349
2021-03-10 08:14:01+00:00,269.0,4.78,268.0,5.34,12.25,47.59359,-54.27349
2021-03-10 08:24:01+00:00,281.0,4.12,269.0,4.59,12.25,47.59359,-54.27349
2021-03-10 08:34:01+00:00,267.0,3.0,259.0,4.07,12.25,47.59359,-54.27349
2021-03-10 08:44:01+00:00,244.0,4.85,254.0,5.82,12.25,47.59359,-54.27349
2021-03-10 08:54:01+00:00,248.0,3.71,243.0,4.74,12.25,47.59359,-54.27349
2021-03-10 09:04:01+00:00,235.0,4.1,236.0,4.77,12.25,47.59359,-54.27349
2021-03-10 09:14:01+00:00,251.0,4.93,255.0,6.5,12.25,47.59359,-54.27349
2021-03-10 09:24:01+00:00,251.0,4.92,248.0,5.88,12.25,47.59359,-54.27349
2021-03-10 09:34:01+00:00,241.0,5.1,244.0,6.34,12.25,47.59359,-54.27349
2021-03-10 09:44:01+00:00,248.0,4.57,255.0,5.43,12.25,47.59359,-54.27349
2021-03-10 09:54:01+00:00,248.0,4.17,243.0,5.03,12.25,47.59359,-54.27349
2021-03-10 10:04:01+00:00,253.0,4.01,252.0,4.48,12.25,47.59359,-54.27349
2021-03-10 10:14:01+00:00,268.0,3.69,272.0,4.52,12.17,47.59359,-54.27349
2021-03-10 10:24:01+00:00,284.0,4.05,287.0,4.41,12.17,47.59359,-54.27349
2021-03-10 10:34:01+00:00,284.0,3.34,276.0,4.19,12.17,47.59359,-54.27349
2021-03-10 10:44:01+00:00,288.0,4.1,290.0,4.85,12.17,47.59359,-54.27349
2021-03-10 10:54:01+00:00,280.0,2.95,287.0,3.68,12.17,47.59359,-54.27349
2021-03-10 11:04:01+00:00,256.0,4.44,259.0,4.92,12.17,47.59359,-54.27349
2021-03-10 11:14:01+00:00,275.0,3.52,288.0,4.09,13.84,47.59359,-54.27349
2021-03-10 11:24:01+00:00,281.0,3.72,283.0,4.21,13.84,47.59359,-54.27349
2021-03-10 11:34:01+00:00,293.0,3.2,291.0,3.61,13.84,47.59359,-54.27349
2021-03-10 11:44:01+00:00,285.0,3.38,288.0,3.8,13.84,47.59359,-54.27349
2021-03-10 11:54:01+00:00,296.0,3.61,298.0,3.92,13.84,47.59359,-54.27349
2021-03-10 12:04:01+00:00,312.0,5.62,311.0,6.6,13.84,47.59359,-54.27349
2021-03-10 12:14:01+00:00,319.0,6.84,320.0,7.81,14.32,47.59359,-54.27349
2021-03-10 12:24:01+00:00,318.0,5.84,322.0,6.77,14.32,47.59359,-54.27349
2021-03-10 12:34:01+00:00,311.0,6.79,312.0,8.0,14.32,47.59359,-54.27349
2021-03-10 12:44:01+00:00,315.0,5.4,311.0,6.63,14.32,47.59359,-54.27349
2021-03-10 12:54:01+00:00,324.0,4.55,325.0,5.32,14.32,47.59359,-54.27349
2021-03-10 13:04:01+00:00,310.0,7.12,309.0,8.14,14.32,47.59359,-54.27349
2021-03-10 13:14:01+00:00,295.0,6.36,292.0,7.49,14.4,47.59359,-54.27349
2021-03-10 13:24:01+00:00,295.0,7.56,291.0,8.07,14.4,47.59359,-54.27349
2021-03-10 13:34:01+00:00,301.0,6.17,299.0,7.12,14.4,47.59359,-54.27349
2021-03-10 13:44:01+00:00,302.0,5.49,297.0,6.91,14.4,47.59359,-54.27349
2021-03-10 13:54:01+00:00,299.0,4.88,300.0,5.62,14.4,47.59359,-54.27349
2021-03-10 14:04:01+00:00,294.0,5.63,294.0,6.56,14.4,47.59359,-54.27349
2021-03-10 14:14:01+00:00,285.0,5.85,286.0,6.74,14.4,47.59359,-54.27349
2021-03-10 14:24:01+00:00,281.0,5.3,276.0,6.18,14.4,47.59359,-54.27349
2021-03-10 14:34:01+00:00,291.0,5.22,292.0,6.21,14.4,47.59359,-54.27349
2021-03-10 14:44:01+00:00,285.0,5.49,285.0,6.35,14.4,47.59359,-54.27349
2021-03-10 14:54:01+00:00,272.0,6.44,272.0,7.53,14.4,47.59359,-54.27349
2021-03-10 15:04:01+00:00,291.0,8.76,293.0,9.87,14.4,47.59359,-54.27349
2021-03-10 15:14:01+00:00,301.0,7.1,303.0,7.87,14.32,47.59359,-54.27349
2021-03-10 15:24:01+00:00,283.0,5.32,281.0,5.9,14.32,47.59359,-54.27349
2021-03-10 15:34:01+00:00,276.0,5.05,273.0,5.9,14.32,47.59359,-54.27349
2021-03-10 15:44:01+00:00,279.0,6.62,279.0,7.63,14.32,47.59359,-54.27349
2021-03-10 15:54:01+00:00,261.0,9.26,265.0,10.66,14.32,47.59359,-54.27349
2021-03-10 16:04:01+00:00,270.0,8.66,272.0,10.19,14.32,47.59359,-54.27349
2021-03-10 16:14:01+00:00,271.0,6.56,269.0,7.33,13.6,47.59359,-54.27349
2021-03-10 16:24:01+00:00,266.0,9.52,260.0,11.14,13.6,47.59359,-54.27349
2021-03-10 16:34:01+00:00,261.0,9.2,258.0,10.82,13.6,47.59359,-54.27349
2021-03-10 16:44:01+00:00,264.0,7.36,265.0,8.25,13.6,47.59359,-54.27349
2021-03-10 16:54:01+00:00,270.0,9.82,270.0,10.61,13.6,47.59359,-54.27349
2021-03-10 17:04:01+00:00,271.0,8.33,269.0,9.33,13.6,47.59359,-54.27349
2021-03-10 17:14:01+00:00,272.0,7.91,272.0,8.85,14.4,47.59359,-54.27349
2021-03-10 17:24:01+00:00,270.0,7.25,270.0,8.02,14.4,47.59359,-54.27349
2021-03-10 17:34:01+00:00,271.0,7.86,272.0,8.99,14.4,47.59359,-54.27349
2021-03-10 17:44:01+00:00,259.0,6.44,258.0,7.34,14.4,47.59359,-54.27349
2021-03-10 17:54:01+00:00,274.0,7.27,270.0,7.89,14.4,47.59359,-54.27349
2021-03-10 18:04:01+00:00,264.0,5.54,268.0,6.43,14.4,47.59359,-54.27349
2021-03-10 18:14:01+00:00,253.0,6.17,252.0,6.74,13.76,47.59359,-54.27349
2021-03-10 18:24:01+00:00,259.0,5.52,253.0,6.34,13.76,47.59359,-54.27349
2021-03-10 18:34:01+00:00,283.0,5.52,290.0,6.63,13.76,47.59359,-54.27349
2021-03-10 18:44:01+00:00,290.0,8.41,294.0,9.47,13.76,47.59359,-54.27349
2021-03-10 18:54:01+00:00,280.0,7.65,277.0,9.14,13.76,47.59359,-54.27349
2021-03-10 19:04:01+00:00,281.0,7.51,283.0,8.57,13.76,47.59359,-54.27349
2021-03-10 19:14:01+00:00,275.0,6.68,277.0,8.04,14.08,47.59359,-54.27349
2021-03-10 19:24:01+00:00,270.0,6.72,271.0,7.65,14.08,47.59359,-54.27349
2021-03-10 19:34:01+00:00,271.0,6.87,271.0,8.34,14.08,47.59359,-54.27349
2021-03-10 19:44:01+00:00,282.0,7.52,281.0,8.53,14.08,47.59359,-54.27349
2021-03-10 19:54:01+00:00,278.0,6.45,278.0,7.7,14.08,47.59359,-54.27349
2021-03-10 20:04:01+00:00,276.0,8.13,274.0,9.23,14.08,47.59359,-54.27349
2021-03-10 20:14:01+00:00,277.0,8.06,278.0,8.9,13.92,47.59359,-54.27349
2021-03-10 20:24:01+00:00,267.0,5.18,269.0,5.63,13.92,47.59359,-54.27349
2021-03-10 20:34:01+00:00,276.0,6.0,277.0,6.71,13.92,47.59359,-54.27349
2021-03-10 20:44:01+00:00,267.0,5.91,272.0,6.68,13.92,47.59359,-54.27349
2021-03-10 20:54:01+00:00,270.0,5.89,270.0,6.64,13.92,47.59359,-54.27349
2021-03-10 21:04:01+00:00,268.0,5.94,263.0,6.65,13.92,47.59359,-54.27349
2021-03-10 21:14:01+00:00,264.0,5.5,265.0,6.58,13.53,47.59359,-54.27349
2021-03-10 21:24:01+00:00,260.0,5.51,265.0,6.91,13.53,47.59359,-54.27349
2021-03-10 21:34:01+00:00,264.0,5.24,265.0,5.74,13.53,47.59359,-54.27349
2021-03-10 21:44:01+00:00,266.0,5.04,255.0,6.12,13.53,47.59359,-54.27349
2021-03-10 21:54:01+00:00,270.0,5.54,272.0,5.95,13.53,47.59359,-54.27349
2021-03-10 22:04:01+00:00,263.0,5.84,263.0,6.22,13.53,47.59359,-54.27349
2021-03-10 22:14:01+00:00,263.0,5.09,265.0,5.81,12.81,47.59359,-54.27349
2021-03-10 22:24:01+00:00,266.0,5.62,267.0,6.57,12.81,47.59359,-54.27349
2021-03-10 22:34:01+00:00,260.0,5.24,264.0,6.02,12.81,47.59359,-54.27349
2021-03-10 22:44:01+00:00,257.0,5.38,255.0,6.16,12.81,47.59359,-54.27349
2021-03-10 22:54:01+00:00,264.0,4.92,266.0,5.61,12.81,47.59359,-54.27349
2021-03-10 23:04:01+00:00,264.0,4.87,262.0,5.54,12.81,47.59359,-54.27349
2021-03-10 23:14:01+00:00,263.0,5.31,255.0,7.21,12.49,47.59359,-54.27349
2021-03-10 23:24:01+00:00,256.0,5.15,259.0,5.49,12.49,47.59359,-54.27349
2021-03-10 23:34:01+00:00,251.0,4.92,247.0,5.54,12.49,47.59359,-54.27349
2021-03-10 23:44:01+00:00,214.0,3.86,232.0,5.43,12.49,47.59359,-54.27349
2021-03-10 23:54:01+00:00,212.0,4.81,223.0,5.85,12.49,47.59359,-54.27349
